Location: ???????
(41.2083°N, 22.5015°E)
Time: 19:03:53
(UTC+00:00)

Daily predictions for brighter satellites

Satellite Brightness Start Highest point End
(mag) Time Altitude Azimuth Time Altitude Azimuth Time Altitude Azimuth
Timation 2 Rocket 4.4 16:05:43 10° NNW 16:12:28 54° ENE 16:19:01 10° SE
Cosmos 1356 3.7 16:12:39 10° N 16:15:54 41° ENE 16:19:08 10° SSE
CZ-2C R/B 3.2 16:10:45 10° NNE 16:16:01 40° E 16:21:12 10° SSE
Landsat 5 3.9 16:14:23 10° NNE 16:18:33 44° E 16:22:48 10° S
Radarsat Rocket 4.5 16:14:31 10° S 16:20:34 74° WSW 16:27:22 10° NNW
Okean 2 Rocket 4.3 16:16:30 10° SSW 16:20:46 47° WNW 16:25:05 10° N
SKYMED 2 3.8 16:16:38 10° NNE 16:20:52 50° E 16:25:04 10° S
Aureole 2 4.0 16:19:26 10° NNW 16:22:23 68° ENE 16:25:32 10° SSE
Cosmos 1726 3.5 16:18:58 10° SSW 16:22:24 42° W 16:25:53 10° N
Cosmos 1470 3.5 16:19:33 10° SSW 16:23:28 59° W 16:27:24 10° N
Okean O Rocket 1.8 16:19:31 10° SE 16:23:40 47° ENE 16:27:50 10° N
IRIS 3.5 16:22:00 10° W 16:24:20 72° S 16:26:41 11° ESE
Cosmos 2084 Rocket 4.4 16:20:51 10° WSW 16:24:33 42° NW 16:28:16 10° NNE
SMAP 4.3 16:22:13 10° S 16:26:42 47° W 16:31:12 10° NNW
SL-19 R/B 4.4 16:23:14 10° NNE 16:29:04 89° W 16:34:38 10° SSW
Cosmos 1758 3.3 16:25:57 10° S 16:29:56 88° E 16:33:56 10° N
YAOGAN 1 3.6 16:27:35 10° ESE 16:31:04 24° ENE 16:34:35 10° NNE
CZ-4 R/B 2.5 16:28:21 10° ESE 16:31:27 23° ENE 16:34:37 10° NNE
Okean-O 4.3 16:30:07 11° E 16:32:31 15° ENE 16:35:06 10° NNE
Cosmos 2082 3.9 16:28:31 10° NNW 16:33:59 50° ENE 16:39:26 10° SE
Cosmos 1703 4.2 16:30:39 10° NNE 16:33:59 26° ENE 16:37:19 10° SE
GPS 2-04 Rocket1 4.0 16:30:50 10° WSW 16:34:10 29° S 16:37:23 10° SE
Cosmos 1455 Rocket 3.9 16:31:23 10° SSE 16:35:09 29° E 16:38:57 10° NNE
Cosmos 1727 Rocket 3.9 16:30:59 10° N 16:37:13 74° E 16:43:22 10° SSE
Spot 2 4.4 16:34:27 10° SE 16:38:11 37° ENE 16:42:01 10° N
Cosmos 2150 Rocket 4.1 16:33:30 10° SSW 16:38:57 81° ESE 16:44:22 10° NNE
Cosmos 1953 2.6 16:36:50 10° SSE 16:40:40 44° E 16:44:33 10° NNE
Meteor 1-21 Rocket 4.5 16:36:47 10° N 16:42:27 50° ENE 16:48:09 10° SSE
H-2A R/B 2.9 16:40:47 10° NE 16:44:12 25° E 16:47:37 10° SSE
ATLAS 3B R/B 3.0 16:38:38 10° SW 16:45:07 65° NW 16:51:52 10° NNE
Tiangong 3.4 16:44:37 10° SSE 16:45:49 12° SE 16:46:24 11° SE
H-2A R/B 2.4 16:44:16 10° S 16:49:33 75° WSW 16:55:00 10° NNW
CZ-4B R/B 3.7 16:51:50 10° S 16:57:25 66° WSW 17:03:04 10° NNW
Cosmos 1300 3.9 16:55:39 10° SE 17:03:17 - NNE 16:57:58 23° ESE
Okean 1 Rocket 4.3 16:56:21 10° SSW 17:00:29 44° WNW 17:04:40 10° N
NOSS 3-1 (C) 4.4 16:56:59 10° SSE 17:00:11 19° ESE 17:00:11 19° ESE
ATLAS 5 CENTAUR R/B 1.4 16:57:39 10° SSW 17:01:21 51° ESE 17:04:05 19° NE
Cosmos 405 Rocket 3.0 17:00:06 10° N 17:03:53 44° ENE 17:07:30 11° SSE
Feng Yun 1-1 Rocket 4.1 17:03:03 10° SSE 17:08:31 80° ENE 17:14:09 10° NNW
Cosmos 2369 4.0 17:03:04 10° SSW 17:08:41 68° WNW 17:14:22 10° NNE
COSMO-SKYMED 1 3.7 17:04:46 10° N 17:08:57 47° WNW 17:13:06 10° SW
Cosmos 967 Rocket 4.5 17:03:17 10° NNW 17:09:44 67° ENE 17:15:22 14° SE
SL-8 R/B 3.9 17:09:21 10° SW 17:13:58 51° SE 17:15:46 33° E
IRS-1C Rocket 4.2 17:09:22 10° SE 17:14:27 52° ENE 17:19:33 10° N
Cosmos 1000 Rocket 4.4 17:11:42 10° N 17:17:53 89° W 17:24:05 10° S
HJ-1C 3.2 17:17:52 47° SE 17:18:35 64° ENE 17:21:48 10° N
H-2A R/B 2.7 17:15:13 10° S 17:19:38 78° WSW 17:23:58 10° NNW
SL-08 RB Rocket 3.7 17:16:31 10° SSE 17:21:02 84° W 17:25:36 10° NNW
Cosmos 1892 Rocket 3.7 17:18:31 10° N 17:23:00 78° W 17:27:25 10° S
Cosmos 1980 Rocket 2.5 17:17:23 10° SSW 17:23:00 69° WNW 17:28:42 10° NNE
Cosmos 489 Rocket 4.4 17:19:00 10° NNW 17:25:09 59° ENE 17:29:10 22° SE
Cosmos 2263 Rocket 2.2 17:23:35 10° NNW 17:29:04 55° ENE 17:31:02 36° ESE
CSL-04 Debris 4.3 17:26:57 29° SE 17:29:26 51° ENE 17:34:40 10° N
Cosmos 1269 Rocket 4.0 17:27:10 10° NNW 17:32:24 57° ENE 17:34:02 40° ESE
ARGOS 4.1 17:28:46 10° S 17:33:57 49° W 17:39:12 10° NNW
X-37B 1.3 17:33:01 10° W 17:35:50 48° NNW 17:35:50 48° NNW
Genesis I 4.3 17:34:53 10° NW 17:38:48 45° WSW 17:41:01 22° S
CZ-2C R/B 2.9 17:39:58 10° SW 17:41:24 18° SSW 17:41:24 18° SSW
Cosmos 724 4.4 17:36:59 10° NNW 17:42:50 56° NE 17:43:53 49° E
Cosmos 371 Rocket 3.1 17:45:25 10° S 17:50:04 71° ESE 17:50:04 71° ESE
CSL-04 Rocket 3.6 17:48:32 45° SE 17:50:14 72° ENE 17:55:46 10° N
Cosmos 1607 4.3 17:44:38 10° NW 17:50:49 62° WSW 17:54:59 21° SSE
MetOp-A 4.0 17:49:39 32° SSE 17:52:15 86° ENE 17:57:38 10° NNW
Cosmos 1626 Rocket 4.2 17:48:04 10° N 17:51:03 42° N 17:51:03 42° N
Cosmos 2278 4.4 17:47:00 10° SW 17:52:31 53° WNW 17:58:06 10° NNE
Iridium 4 Rocket 3.9 17:49:13 10° NNW 17:53:30 53° W 17:58:09 10° SSW
Cosmos 1934 Rocket 4.3 17:50:33 10° SSW 17:56:37 64° W 18:02:41 10° N
Gbstr 26 Del rocket 4.5 17:51:55 10° NW 17:59:22 68° NNE 18:01:28 51° E
Meteor 1-11 4.2 17:58:59 10° NNW 18:04:35 79° W 18:06:55 37° S
Cosmos 1844 Rocket 4.4 18:00:22 10° N 18:02:41 19° NNE 18:02:41 19° NNE
CZ-4 R/B 3.4 18:02:58 10° SSW 18:06:18 26° W 18:09:43 10° NW
YAOGAN 1 4.4 18:03:15 10° SSW 18:07:02 29° W 18:10:50 10° NW
Okean-O 3.3 18:07:42 45° SW 18:08:32 53° W 18:12:53 10° NNW
SL-16 R/B 2.3 18:04:07 10° SSW 18:08:50 63° S 18:08:50 63° S
H-2A R/B 4.1 18:16:41 10° NNW 18:20:05 26° WNW 18:23:30 10° SW
Cosmos 2322 Rocket 4.1 18:22:13 10° SSW 18:23:24 17° SSW 18:23:24 17° SSW
Lacrosse 4 Rocket 4.3 18:35:54 10° NNW 18:36:04 11° NNW 18:36:04 11° NNW
Cosmos 839 Rocket 4.4 18:37:16 10° NNW 18:43:48 67° NNW 18:43:48 67° NNW
ATLAS 5 CENTAUR R/B 4.0 18:43:29 10° W 18:45:39 17° NW 18:45:39 17° NW
Cosmos 2263 Rocket 4.3 19:08:33 10° NW 19:12:30 20° W 19:12:46 20° WSW
